(°C)
10°
12°
14°
15°
16°
17°
(°C)
10°
11°
12°
12°
JZ
JZ
ZJZ
ZJZ
Z
ZJZ
ZJZ
(km/h)
4-13
4-15
5-16
6-17
7-17
7-16
7-15
(mm)
0
0
0
0
0
0
0
(%)
30
30
20
10
0
0
0

Výška Slnka nad obzorom

/ 22.6°
sun-icon
UV 2
07:24
17:48
Posledná štvrť (269°)
00:31
11:52

Správy METAR pre lokalitu Južná Karolína (KCUB)

Čas Podmienky Teplota/
Rosný bod
Vietor Viditeľnosť Počasie Oblaky Tlak Zmeniť Nespracované
VFR 7.2°C / 2.8°C variable 0kt >10km - Overcast 10000ft 1016 - KCUB 251353Z AUTO 00000KT 9SM OVC100 07/03 A3001 RMK AO2 SLP161 T00720028
VFR 6.7°C / 1.7°C variable 0kt >10km - Overcast 11000ft 1015 - KCUB 251253Z AUTO 00000KT 10SM OVC110 07/02 A3000 RMK AO2 SLP157 T00670017 $
VFR 6.1°C / 2.2°C variable 0kt >10km - Overcast 10000ft 1014 - KCUB 251153Z AUTO 00000KT 10SM OVC100 06/02 A2996 RMK AO2 SLP144 T00610022 10067 20044 50008 $
VFR 6.1°C / 1.7°C variable 0kt >10km - Scattered Clouds 12000ft 1014 - KCUB 251053Z AUTO 00000KT 10SM SCT120 06/02 A2996 RMK AO2 SLP146 T00610017 $
VFR 5.6°C / 2.2°C variable 0kt >10km - Broken Clouds 12000ft 1013 - KCUB 250953Z AUTO 00000KT 8SM BKN120 06/02 A2993 RMK AO2 SLP136 T00560022 $
VFR 5°C / 1.7°C variable 0kt >10km - Clear 1013 - KCUB 250853Z AUTO 00000KT 7SM CLR 05/02 A2993 RMK AO2 SLP136 T00500017 56004 $
VFR 5°C / 1.1°C variable 0kt >10km - Clear 1013 - KCUB 250753Z AUTO 00000KT 9SM CLR 05/01 A2993 RMK AO2 SLP136 T00500011 $
VFR 5°C / 0.6°C variable 0kt >10km - Clear 1013 - KCUB 250653Z AUTO 00000KT 10SM CLR 05/01 A2993 RMK AO2 SLP133 T00500006 $
VFR 4.4°C / 0°C variable 0kt >10km - Clear 1014 - KCUB 250553Z AUTO 00000KT 9SM CLR 04/00 A2995 RMK AO2 SLP140 T00440000 10083 20039 58002 $
VFR 3.9°C / 0°C variable 0kt >10km - Clear 1014 - KCUB 250453Z AUTO 00000KT 9SM CLR 04/00 A2995 RMK AO2 SLP142 T00390000 401501011 $
VFR 4.4°C / 0°C variable 0kt >10km - Clear 1014 - KCUB 250353Z AUTO 00000KT 10SM CLR 04/00 A2995 RMK AO2 SLP141 T00440000 $
VFR 4.4°C / 0°C variable 0kt >10km - Clear 1014 - KCUB 250253Z AUTO 00000KT 10SM CLR 04/00 A2995 RMK AO2 SLP143 T00440000 50010 $
VFR 5.6°C / 0°C variable 0kt >10km - Clear 1014 - KCUB 250153Z AUTO 00000KT 10SM CLR 06/00 A2996 RMK AO2 SLP144 T00560000 $
VFR 6.1°C / 0.6°C variable 0kt >10km - Clear 1013 - KCUB 250053Z AUTO 00000KT 10SM CLR 06/01 A2994 RMK AO2 SLP138 T00610006 $
VFR 8.3°C / -1.1°C variable 0kt >10km - Clear 1013 - KCUB 242353Z AUTO 00000KT 10SM CLR 08/M01 A2992 RMK AO2 SLP133 T00831011 10150 20083 53010 $
VFR 11.7°C / -2.8°C 210º 3kt >10km - Clear 1012 - KCUB 242253Z AUTO 21003KT 10SM CLR 12/M03 A2990 RMK AO2 SLP126 T01171028 $
VFR 14.4°C / -3.3°C 220º 7kt >10km - Clear 1012 - KCUB 242153Z AUTO 22007KT 10SM CLR 14/M03 A2989 RMK AO2 SLP122 T01441033 $
VFR 14.4°C / -3.3°C 220º 9kt >10km - Clear 1012 - KCUB 242053Z AUTO 22009KT 10SM CLR 14/M03 A2989 RMK AO2 SLP122 T01441033 56014 $
VFR 13.9°C / -3.9°C 250º 6kt >10km - Clear 1012 - KCUB 241953Z AUTO 25006KT 10SM CLR 14/M04 A2989 RMK AO2 SLP122 T01391039
VFR 12.8°C / -2.8°C 140º 4kt >10km - Clear 1012 - KCUB 241853Z AUTO 14004KT 10SM CLR 13/M03 A2991 RMK AO2 SLP127 T01281028
VFR 11.7°C / -2.8°C 130º 6kt >10km - Clear 1013 - KCUB 241753Z AUTO 13006KT 10SM CLR 12/M03 A2993 RMK AO2 SLP135 T01171028 10117 21011 58021
VFR 10.6°C / -2.8°C variable 0kt >10km - Clear 1014 - KCUB 241653Z AUTO 00000KT 10SM CLR 11/M03 A2996 RMK AO2 SLP146 T01061028
VFR 8.3°C / -1.7°C variable 0kt >10km - Clear 1015 - KCUB 241553Z AUTO 00000KT 10SM CLR 08/M02 A2998 RMK AO2 SLP152 T00831017
VFR 5.6°C / -1.1°C variable 0kt >10km - Clear 1015 - KCUB 241453Z AUTO 00000KT 10SM CLR 06/M01 A2999 RMK AO2 SLP157 T00561011 51012

VFR

7.2°C / 2.8°C

[Viac]
Vietor variable 0kt
Viditeľnosť >10km
Počasie -
Oblaky Overcast 10000ft
Tlak 1016
Zmeniť -
Nespracované KCUB 251353Z AUTO 00000KT 9SM OVC100 07/03 A3001 RMK AO2 SLP161 T00720028

VFR

6.7°C / 1.7°C

[Viac]
Vietor variable 0kt
Viditeľnosť >10km
Počasie -
Oblaky Overcast 11000ft
Tlak 1015
Zmeniť -
Nespracované KCUB 251253Z AUTO 00000KT 10SM OVC110 07/02 A3000 RMK AO2 SLP157 T00670017 $

VFR

6.1°C / 2.2°C

[Viac]
Vietor variable 0kt
Viditeľnosť >10km
Počasie -
Oblaky Overcast 10000ft
Tlak 1014
Zmeniť -
Nespracované KCUB 251153Z AUTO 00000KT 10SM OVC100 06/02 A2996 RMK AO2 SLP144 T00610022 10067 20044 50008 $

VFR

6.1°C / 1.7°C

[Viac]
Vietor variable 0kt
Viditeľnosť >10km
Počasie -
Oblaky Scattered Clouds 12000ft
Tlak 1014
Zmeniť -
Nespracované KCUB 251053Z AUTO 00000KT 10SM SCT120 06/02 A2996 RMK AO2 SLP146 T00610017 $

VFR

5.6°C / 2.2°C

[Viac]
Vietor variable 0kt
Viditeľnosť >10km
Počasie -
Oblaky Broken Clouds 12000ft
Tlak 1013
Zmeniť -
Nespracované KCUB 250953Z AUTO 00000KT 8SM BKN120 06/02 A2993 RMK AO2 SLP136 T00560022 $

VFR

5°C / 1.7°C

[Viac]
Vietor variable 0kt
Viditeľnosť >10km
Počasie -
Oblaky Clear
Tlak 1013
Zmeniť -
Nespracované KCUB 250853Z AUTO 00000KT 7SM CLR 05/02 A2993 RMK AO2 SLP136 T00500017 56004 $

VFR

5°C / 1.1°C

[Viac]
Vietor variable 0kt
Viditeľnosť >10km
Počasie -
Oblaky Clear
Tlak 1013
Zmeniť -
Nespracované KCUB 250753Z AUTO 00000KT 9SM CLR 05/01 A2993 RMK AO2 SLP136 T00500011 $

VFR

5°C / 0.6°C

[Viac]
Vietor variable 0kt
Viditeľnosť >10km
Počasie -
Oblaky Clear
Tlak 1013
Zmeniť -
Nespracované KCUB 250653Z AUTO 00000KT 10SM CLR 05/01 A2993 RMK AO2 SLP133 T00500006 $

VFR

4.4°C / 0°C

[Viac]
Vietor variable 0kt
Viditeľnosť >10km
Počasie -
Oblaky Clear
Tlak 1014
Zmeniť -
Nespracované KCUB 250553Z AUTO 00000KT 9SM CLR 04/00 A2995 RMK AO2 SLP140 T00440000 10083 20039 58002 $

VFR

3.9°C / 0°C

[Viac]
Vietor variable 0kt
Viditeľnosť >10km
Počasie -
Oblaky Clear
Tlak 1014
Zmeniť -
Nespracované KCUB 250453Z AUTO 00000KT 9SM CLR 04/00 A2995 RMK AO2 SLP142 T00390000 401501011 $

VFR

4.4°C / 0°C

[Viac]
Vietor variable 0kt
Viditeľnosť >10km
Počasie -
Oblaky Clear
Tlak 1014
Zmeniť -
Nespracované KCUB 250353Z AUTO 00000KT 10SM CLR 04/00 A2995 RMK AO2 SLP141 T00440000 $

VFR

4.4°C / 0°C

[Viac]
Vietor variable 0kt
Viditeľnosť >10km
Počasie -
Oblaky Clear
Tlak 1014
Zmeniť -
Nespracované KCUB 250253Z AUTO 00000KT 10SM CLR 04/00 A2995 RMK AO2 SLP143 T00440000 50010 $

VFR

5.6°C / 0°C

[Viac]
Vietor variable 0kt
Viditeľnosť >10km
Počasie -
Oblaky Clear
Tlak 1014
Zmeniť -
Nespracované KCUB 250153Z AUTO 00000KT 10SM CLR 06/00 A2996 RMK AO2 SLP144 T00560000 $

VFR

6.1°C / 0.6°C

[Viac]
Vietor variable 0kt
Viditeľnosť >10km
Počasie -
Oblaky Clear
Tlak 1013
Zmeniť -
Nespracované KCUB 250053Z AUTO 00000KT 10SM CLR 06/01 A2994 RMK AO2 SLP138 T00610006 $

VFR

8.3°C / -1.1°C

[Viac]
Vietor variable 0kt
Viditeľnosť >10km
Počasie -
Oblaky Clear
Tlak 1013
Zmeniť -
Nespracované KCUB 242353Z AUTO 00000KT 10SM CLR 08/M01 A2992 RMK AO2 SLP133 T00831011 10150 20083 53010 $

VFR

11.7°C / -2.8°C

[Viac]
Vietor 210º 3kt
Viditeľnosť >10km
Počasie -
Oblaky Clear
Tlak 1012
Zmeniť -
Nespracované KCUB 242253Z AUTO 21003KT 10SM CLR 12/M03 A2990 RMK AO2 SLP126 T01171028 $

VFR

14.4°C / -3.3°C

[Viac]
Vietor 220º 7kt
Viditeľnosť >10km
Počasie -
Oblaky Clear
Tlak 1012
Zmeniť -
Nespracované KCUB 242153Z AUTO 22007KT 10SM CLR 14/M03 A2989 RMK AO2 SLP122 T01441033 $

VFR

14.4°C / -3.3°C

[Viac]
Vietor 220º 9kt
Viditeľnosť >10km
Počasie -
Oblaky Clear
Tlak 1012
Zmeniť -
Nespracované KCUB 242053Z AUTO 22009KT 10SM CLR 14/M03 A2989 RMK AO2 SLP122 T01441033 56014 $

VFR

13.9°C / -3.9°C

[Viac]
Vietor 250º 6kt
Viditeľnosť >10km
Počasie -
Oblaky Clear
Tlak 1012
Zmeniť -
Nespracované KCUB 241953Z AUTO 25006KT 10SM CLR 14/M04 A2989 RMK AO2 SLP122 T01391039

VFR

12.8°C / -2.8°C

[Viac]
Vietor 140º 4kt
Viditeľnosť >10km
Počasie -
Oblaky Clear
Tlak 1012
Zmeniť -
Nespracované KCUB 241853Z AUTO 14004KT 10SM CLR 13/M03 A2991 RMK AO2 SLP127 T01281028

VFR

11.7°C / -2.8°C

[Viac]
Vietor 130º 6kt
Viditeľnosť >10km
Počasie -
Oblaky Clear
Tlak 1013
Zmeniť -
Nespracované KCUB 241753Z AUTO 13006KT 10SM CLR 12/M03 A2993 RMK AO2 SLP135 T01171028 10117 21011 58021

VFR

10.6°C / -2.8°C

[Viac]
Vietor variable 0kt
Viditeľnosť >10km
Počasie -
Oblaky Clear
Tlak 1014
Zmeniť -
Nespracované KCUB 241653Z AUTO 00000KT 10SM CLR 11/M03 A2996 RMK AO2 SLP146 T01061028

VFR

8.3°C / -1.7°C

[Viac]
Vietor variable 0kt
Viditeľnosť >10km
Počasie -
Oblaky Clear
Tlak 1015
Zmeniť -
Nespracované KCUB 241553Z AUTO 00000KT 10SM CLR 08/M02 A2998 RMK AO2 SLP152 T00831017

VFR

5.6°C / -1.1°C

[Viac]
Vietor variable 0kt
Viditeľnosť >10km
Počasie -
Oblaky Clear
Tlak 1015
Zmeniť -
Nespracované KCUB 241453Z AUTO 00000KT 10SM CLR 06/M01 A2999 RMK AO2 SLP157 T00561011 51012

Správy TAF pre lokalitu Južná Karolína (KCUB)

From till


From till Wind variable 0kt. Visibility 10km or more. Overcast 10000ft.
From till Wind 240º 5kt. Visibility 10km or more. Overcast 10000ft.
From till Wind variable 0kt. Visibility 10km or more. Scattered Clouds 6000ft.

Nespracované: KCUB 251434Z 2515/2612 00000KT P6SM OVC100 FM251600 24005KT P6SM OVC100 FM252300 00000KT P6SM SCT060

Radar a krátkodobá predpoveď zrážok pre Južná Karolína

Mrholenie
Slabý
Mierne
Ťažké
Veľmi ťažké
Krúpy

Značka polohy je umiestnená na Južná Karolína. Táto animácia ukazuje zrážky pozorované radarom za poslednú hodinu a tiež 1h predpoveď. Mrholenie alebo slabé sneženie môže byť pre radar neviditeľné. Intenzita zrážok je farebne označená od svetlomodrej po oranžovú.

Aktuálne satelitné snímky pre lokalitu Južná Karolína, Spojené štáty americké

Značka polohy je umiestnená naJužná Karolína. [Viac]

Satelitné snímky zhotovované v reálnom čase využívajú viditeľné svetlo počas dňa a infračervené žiarenie počas noci. Vzhľadom na to, že infračervené žiarenie zisťuje teplotné rozdiely, snímka v noci nie je tmavá. Nízke oblaky a hmlu je, žiaľ, ťažké odlíšiť od prízemných teplôt, preto môžu byť počas noci takmer neviditeľné. Meteosat satelitné snímky pre Európu sú aktualizované v reálnom čase každých 5 minút. Snímky z GOES-16/GOES-17 (Severná a Južná Amerika) a Himawari (Ázia) sú aktualizované každých 10 minút.